Theta_e
327 326 325 324 323 324 325 326 326 326 326 326 326 326 326 326 326 326 326 325 325 325 325 325 325 323 320 322 325 325 323 321 321 322 323 326 326 326 325 323 317 320 322 312 310 312 313 315 314 314 315 317 319 321 322 321 323 323 326 327 323 322 323 323 323 321 320 320 319 319 319 318 318 317 316 316 317 317 317 318 320 322 326 333 339 338 338 337
328 326 325 324 323 323 324 325 325 326 327 326 326 326 326 326 326 326 325 326 325 325 325 324 323 321 318 322 324 322 321 320 321 321 324 326 325 325 325 324 323 323 321 313 310 312 313 313 314 315 314 317 319 320 322 321 321 322 325 324 322 324 323 322 321 318 319 319 318 319 319 318 318 317 317 317 318 317 316 317 318 323 326 330 337 337 336 337
328 326 325 324 323 323 323 324 324 325 326 326 326 325 326 326 326 326 326 326 325 325 325 324 322 319 318 319 318 318 318 319 320 321 324 326 324 324 324 323 325 324 320 316 312 311 312 313 314 315 314 316 318 319 321 321 320 320 322 323 323 323 322 320 318 318 318 318 318 319 319 319 318 317 317 316 318 317 316 317 316 322 326 328 335 335 335 335
326 326 324 325 323 322 322 324 324 325 326 326 326 325 325 325 325 325 325 326 325 325 325 324 321 318 315 313 314 317 318 321 323 323 324 326 324 323 323 321 321 322 320 317 313 310 311 312 313 314 313 314 316 319 320 320 320 319 321 322 323 321 320 318 317 318 319 319 318 318 319 319 318 317 316 316 317 317 316 317 316 319 325 327 332 334 334 335
325 326 325 325 324 322 322 323 324 324 325 325 325 325 325 325 325 325 325 325 325 325 324 323 321 317 314 312 315 318 321 327 327 324 324 325 325 324 324 321 318 320 320 318 314 310 311 311 312 313 313 314 315 318 318 318 319 319 320 320 320 320 319 317 316 318 318 319 319 318 319 318 317 316 316 316 316 317 315 317 317 319 325 327 330 332 333 334
324 325 325 324 324 322 321 322 324 325 325 325 325 325 325 325 325 325 325 325 324 324 323 322 321 317 315 314 317 319 324 329 323 322 326 324 326 325 325 323 318 317 319 319 315 311 312 312 312 313 312 313 316 317 316 317 318 319 319 319 319 318 317 316 315 317 317 318 318 318 318 317 317 316 316 317 316 316 315 316 321 324 326 327 330 331 333 334
324 324 325 324 324 323 321 321 323 324 325 325 325 324 325 324 324 324 324 324 323 323 322 322 320 318 316 315 317 321 325 326 319 319 323 323 326 327 325 322 316 316 316 316 313 311 312 312 312 313 313 313 315 315 316 317 318 317 318 318 318 316 315 315 314 315 317 317 317 317 317 317 317 316 316 317 316 316 315 316 319 324 327 329 331 331 333 334
325 324 324 324 324 323 321 321 323 325 324 325 325 324 324 324 324 324 323 323 323 322 321 320 319 317 317 316 319 325 325 323 317 314 317 319 320 321 322 319 314 315 316 315 312 311 312 312 312 312 312 313 314 315 317 317 317 317 317 317 316 315 314 314 313 314 315 315 316 317 317 317 316 315 316 316 316 316 316 317 319 322 327 330 331 331 333 333
324 324 324 324 323 322 321 321 323 324 324 324 324 324 324 323 323 323 323 323 321 321 320 319 317 315 317 317 319 326 325 322 319 312 313 315 314 315 317 316 314 314 317 316 312 311 312 312 312 312 312 313 313 315 317 316 316 316 316 316 315 314 314 313 313 313 314 314 315 316 317 316 315 315 316 317 316 316 316 319 320 321 325 328 329 330 332 332
324 324 324 324 323 322 321 321 322 324 324 324 324 324 324 323 322 322 322 322 321 320 320 318 317 314 316 317 319 326 325 323 323 315 312 314 313 313 315 317 316 315 316 314 312 311 312 312 312 313 313 312 313 315 316 316 316 316 316 316 315 314 314 314 314 313 314 315 314 316 317 315 314 315 317 317 315 315 316 318 320 320 321 324 326 328 329 330
323 324 324 323 323 322 321 321 322 323 324 323 323 323 323 322 322 322 322 322 321 320 319 319 317 315 316 317 319 324 321 321 324 317 313 314 314 312 313 315 315 314 314 313 312 312 312 312 312 313 313 312 312 314 316 316 316 316 316 316 315 314 314 314 314 314 314 315 313 315 316 315 315 315 317 316 315 315 315 316 320 320 320 321 324 326 327 328
322 323 324 323 323 322 322 321 322 323 323 323 323 323 322 321 321 321 322 321 321 320 318 318 318 316 316 318 320 321 318 318 320 316 314 314 314 313 312 312 312 313 313 312 312 312 312 312 312 313 312 311 312 313 314 315 316 316 315 316 315 314 314 314 314 314 315 315 314 314 315 315 316 316 316 316 315 315 315 316 319 319 318 320 323 326 328 327
321 323 323 323 322 322 322 322 322 323 323 323 323 322 321 320 320 321 321 320 320 319 317 315 315 315 316 319 318 317 317 316 315 315 314 314 314 314 312 311 311 312 312 312 313 312 312 313 313 313 312 312 312 313 314 314 315 315 315 316 315 315 315 315 315 315 315 315 314 314 315 316 317 317 316 315 315 316 315 316 319 319 318 320 323 326 329 328
321 322 323 322 322 322 322 322 321 322 322 322 322 321 321 320 320 320 319 319 318 317 315 312 312 314 316 318 314 312 315 314 313 314 313 313 314 314 313 312 311 312 312 313 314 313 312 312 313 313 313 313 312 313 313 314 315 315 315 316 318 317 315 315 315 314 315 314 314 314 314 316 317 316 316 315 314 315 315 316 317 318 318 320 325 327 329 329
321 322 323 322 322 322 322 321 321 322 322 322 321 321 320 319 318 318 318 318 317 316 316 313 312 314 315 313 311 311 313 313 313 313 312 313 313 313 313 312 312 312 312 313 313 313 312 312 312 313 313 313 313 313 313 314 314 314 315 316 318 317 315 316 315 315 315 314 313 314 314 315 315 315 314 314 314 315 315 315 315 317 318 320 324 327 327 327
322 322 323 322 322 322 321 321 321 321 322 321 320 320 319 318 317 317 317 315 315 316 316 314 313 314 314 311 312 312 311 313 313 313 313 313 313 313 312 312 312 312 312 312 311 311 312 311 313 314 313 312 312 313 314 315 314 314 315 316 316 316 315 316 315 315 316 315 313 314 315 316 315 314 313 313 314 314 314 316 315 316 317 318 321 323 323 324
322 322 322 322 322 321 320 321 321 321 321 320 320 319 318 317 316 316 316 314 313 314 315 313 312 314 313 310 312 313 312 314 314 312 312 313 314 313 312 312 312 311 311 311 311 311 311 311 313 314 313 312 312 313 315 316 315 315 315 316 316 315 315 315 315 316 316 315 314 314 315 315 315 314 314 314 314 314 314 315 315 316 317 318 319 320 319 320
322 322 322 321 321 321 320 320 320 321 320 319 318 317 316 315 315 315 316 315 314 314 314 310 309 314 316 311 312 313 313 314 314 312 312 314 314 313 312 313 312 311 311 311 311 311 311 312 313 313 313 313 312 312 314 316 315 315 315 314 315 315 315 315 315 315 316 315 315 315 315 315 315 315 315 314 314 314 314 314 315 316 317 318 318 318 317 317
322 321 321 321 320 320 320 320 320 320 319 318 317 315 314 314 314 315 316 316 314 313 313 309 308 315 316 312 312 314 314 314 313 312 312 313 314 313 313 313 312 311 311 312 312 312 312 314 314 314 314 313 312 311 313 316 315 316 317 314 315 316 314 315 316 314 315 315 315 316 315 314 314 315 316 315 314 315 315 315 316 317 317 318 319 319 319 319
321 321 321 320 320 320 320 320 319 318 317 316 315 314 314 314 316 316 316 316 314 313 312 309 309 312 311 311 314 314 313 313 313 313 312 312 313 313 313 313 313 312 312 312 313 313 313 315 315 313 314 313 312 312 312 314 315 315 316 314 315 317 314 314 315 314 314 315 315 315 315 315 315 315 316 316 315 315 315 316 317 317 318 319 319 321 321 321
321 321 320 320 320 320 319 319 318 317 317 315 314 314 314 314 317 317 316 315 313 312 311 309 310 312 312 313 314 313 312 312 314 313 312 312 313 313 313 312 312 312 312 313 314 314 313 315 315 312 313 313 311 312 312 314 315 315 316 315 315 317 315 315 315 313 314 315 315 315 314 314 314 315 316 317 315 315 316 316 316 316 318 319 320 322 322 322
320 320 320 320 320 319 319 318 317 317 316 314 314 314 314 314 316 316 315 315 314 313 311 310 310 312 313 313 313 312 312 313 314 314 312 312 313 313 313 313 312 312 313 313 315 315 314 314 314 312 312 313 313 313 312 314 316 316 317 316 315 317 316 314 314 313 313 314 315 316 316 315 315 315 316 317 316 315 316 315 316 317 317 318 319 321 322 325
320 320 319 319 319 319 318 317 316 316 315 314 315 315 314 314 314 314 314 314 313 312 311 310 311 312 312 312 313 312 312 312 314 315 313 312 313 313 314 313 312 313 313 313 314 315 315 313 313 313 313 314 314 313 313 314 315 317 317 315 315 318 317 314 314 314 313 313 314 317 318 317 315 316 317 316 316 315 316 317 317 319 318 317 319 323 323 325
320 319 319 319 319 318 318 316 315 315 315 315 315 315 315 314 314 314 312 311 311 311 311 310 311 312 312 312 313 312 312 311 314 314 312 312 313 313 314 313 312 314 313 313 314 314 314 313 315 316 314 314 315 314 316 315 314 317 319 317 317 319 319 317 315 313 313 314 315 315 315 317 315 315 315 315 316 316 316 319 320 323 324 322 322 326 326 326
319 319 319 318 318 317 317 316 315 314 315 315 316 315 314 313 313 314 312 312 312 311 311 311 312 312 312 312 312 313 312 312 314 314 312 313 313 313 313 313 313 313 313 314 314 314 314 312 314 317 315 316 317 315 318 318 314 315 320 320 317 318 320 319 317 315 313 316 317 314 315 320 318 315 315 314 316 316 316 321 322 323 325 324 324 326 325 326
318 318 318 317 317 316 316 316 315 314 315 315 316 315 314 313 313 314 314 314 313 312 310 311 313 312 312 313 313 313 312 313 314 313 312 313 313 312 312 312 313 313 313 314 314 315 314 311 314 318 318 319 318 316 319 320 314 311 320 324 319 321 323 322 320 317 314 317 318 316 316 320 318 314 316 317 317 317 317 320 320 319 321 321 321 322 322 322
318 318 317 317 316 315 316 316 315 315 315 315 316 314 315 315 312 312 314 316 315 313 310 310 311 312 313 313 312 312 312 313 313 312 312 312 312 311 311 312 312 313 313 313 315 315 313 312 316 320 320 320 318 317 319 318 314 315 324 329 322 321 326 325 323 318 317 318 318 317 316 318 319 317 317 318 317 316 317 318 319 317 317 320 320 321 324 324
318 317 317 316 316 315 315 315 314 314 315 316 315 315 316 315 312 312 314 316 315 312 310 309 309 312 314 313 312 311 312 313 313 313 312 311 311 311 311 312 312 314 313 312 314 316 315 316 319 320 319 320 318 320 324 318 315 321 326 327 323 321 325 325 322 319 319 321 319 319 317 318 321 319 317 317 315 315 317 317 318 316 317 322 322 323 325 325
317 317 316 316 315 314 314 314 314 314 315 315 315 315 315 312 311 313 314 315 313 310 310 309 309 313 314 312 312 312 311 312 313 312 311 310 311 310 311 312 311 313 313 314 318 320 317 315 317 320 319 320 318 321 328 323 318 322 324 325 324 324 325 323 322 319 319 321 322 322 319 317 321 319 315 317 315 316 317 315 317 318 322 325 324 324 323 321
317 316 316 315 314 314 314 314 314 314 314 314 315 315 313 311 312 313 314 314 312 310 309 309 311 314 313 311 312 312 312 313 312 311 311 310 310 310 311 312 312 315 318 321 321 317 313 311 315 320 317 317 317 316 322 325 321 322 323 323 322 322 321 320 321 319 318 322 323 322 318 315 320 320 315 317 316 317 317 316 321 322 323 323 322 321 319 320
316 316 315 315 314 313 313 313 313 314 314 314 314 313 311 310 311 312 313 314 314 312 309 309 312 314 313 312 312 312 313 313 311 311 311 311 311 310 313 314 315 319 320 323 321 316 313 313 315 318 314 314 317 316 319 320 320 323 323 322 321 320 318 317 318 317 320 323 319 319 320 318 319 318 314 316 316 315 316 317 321 322 322 322 320 318 317 318
315 315 315 314 313 312 313 313 313 313 313 313 312 311 310 310 310 312 314 313 314 313 310 310 312 313 313 313 313 312 314 314 312 312 312 311 311 310 313 315 315 316 315 318 321 319 318 316 315 317 313 314 319 319 318 317 318 323 322 319 320 320 318 318 320 319 321 321 314 314 318 319 319 315 312 315 314 313 317 319 322 322 321 321 319 318 318 318
315 315 314 313 313 312 313 313 312 313 312 312 311 310 311 310 310 313 313 313 314 313 311 311 312 312 313 313 313 313 315 315 312 312 312 312 312 312 313 315 315 315 315 317 319 318 319 318 316 317 314 314 318 317 316 316 317 319 320 320 321 320 318 318 320 320 321 318 313 313 316 319 318 315 314 315 313 315 319 323 324 322 321 320 318 319 320 319
315 314 313 312 312 312 312 312 312 312 311 312 311 310 311 311 311 313 313 313 314 312 311 311 312 312 312 313 313 314 316 316 313 312 313 313 313 312 313 314 315 316 317 317 317 317 318 318 316 317 316 316 318 318 318 317 316 317 319 320 321 319 319 320 320 322 324 319 313 312 316 321 318 316 316 315 315 317 317 319 321 320 320 319 317 318 320 320
314 313 312 311 312 312 312 312 312 312 311 312 312 310 312 312 311 313 314 314 313 312 311 312 312 313 313 314 315 314 316 317 314 313 314 313 313 312 312 313 314 316 316 315 316 315 315 317 317 317 318 317 318 320 321 317 315 318 320 321 320 320 322 322 318 319 322 320 316 315 320 323 318 316 317 315 315 316 314 316 317 318 319 318 317 318 320 320
313 312 311 311 311 312 312 312 312 311 311 312 311 311 312 312 312 314 313 313 312 312 313 312 313 312 312 315 316 315 317 318 315 315 315 314 313 313 313 313 313 314 314 315 317 316 314 318 317 316 317 315 315 319 321 318 317 318 319 320 320 321 324 322 316 314 315 317 319 318 319 318 314 315 317 316 315 313 313 315 314 316 319 318 320 322 322 322
312 312 311 311 311 311 311 312 312 311 312 312 311 311 311 313 317 316 313 313 313 313 313 313 313 313 311 315 316 316 318 318 316 315 316 315 315 314 313 314 314 314 315 316 318 317 317 318 315 316 318 314 313 318 319 318 319 319 320 320 316 318 322 319 315 316 315 314 317 318 317 316 314 316 318 315 314 313 313 313 313 316 318 318 323 325 323 323
312 312 312 312 311 311 311 311 311 311 313 314 312 312 313 316 319 316 313 314 313 313 314 313 314 313 312 315 316 316 317 318 317 316 316 315 316 315 314 314 314 313 314 317 319 320 321 321 316 315 317 315 314 318 317 316 317 318 318 319 317 318 320 316 314 317 318 315 316 318 317 315 315 316 316 316 315 314 313 312 312 316 317 318 324 325 323 323
312 312 312 312 311 311 310 310 311 311 313 314 313 314 317 321 320 315 313 314 313 314 314 314 315 313 314 316 316 316 316 316 316 316 317 315 315 316 314 314 316 314 313 315 319 320 320 322 320 315 315 316 315 315 315 316 316 315 315 316 317 318 318 318 316 315 317 316 316 318 317 319 320 317 315 318 317 315 313 313 312 314 316 317 322 324 322 322
311 312 313 312 311 311 310 310 311 311 313 313 312 314 319 320 319 316 315 314 314 315 314 315 315 313 316 316 315 316 315 316 317 316 317 315 314 315 314 313 316 315 313 314 317 320 317 318 322 317 314 316 316 315 316 317 314 313 315 315 315 315 316 319 319 315 315 316 317 316 315 321 323 317 314 315 315 315 314 313 313 314 315 317 321 323 321 321
312 313 314 312 311 310 310 311 312 312 312 311 311 314 318 318 317 318 319 318 318 318 317 317 315 314 316 315 315 316 314 315 317 316 316 315 314 316 315 314 315 314 314 314 315 319 316 315 320 317 315 317 318 317 316 318 318 315 314 314 314 314 315 317 318 316 314 316 318 316 317 324 324 317 316 314 314 318 317 315 315 316 315 317 321 322 320 319
314 314 314 312 310 310 311 312 313 311 311 311 313 317 318 316 317 318 319 320 321 321 319 317 316 315 316 315 315 316 314 315 316 316 316 315 315 316 316 315 314 313 314 314 314 319 321 321 320 318 316 317 317 316 314 317 322 320 316 317 316 314 315 316 318 320 317 316 316 314 317 328 328 320 318 317 317 318 319 318 319 317 316 318 322 321 318 318
315 315 313 311 310 311 312 313 313 311 311 313 317 319 316 314 317 317 318 319 320 320 321 320 317 316 317 316 316 317 314 314 316 316 315 315 316 319 318 316 315 313 313 314 315 316 319 322 321 318 317 316 315 316 315 316 320 320 318 319 318 315 314 316 318 320 320 318 317 314 314 321 324 321 319 317 315 316 316 317 319 319 319 319 321 320 318 319
313 314 313 311 312 313 313 313 313 312 313 315 318 319 318 317 317 316 316 318 318 318 321 321 319 318 320 318 317 317 315 314 317 317 316 317 319 322 322 317 315 314 313 314 314 314 315 318 321 320 319 319 318 317 316 316 317 318 318 316 316 317 317 317 316 316 319 322 321 317 316 318 322 322 317 315 314 314 313 313 315 320 322 322 321 319 319 319
312 313 313 312 312 314 315 313 313 312 313 316 317 317 318 318 318 317 318 318 317 317 319 320 320 321 322 320 319 318 315 316 319 319 319 320 320 321 323 319 314 314 317 319 315 313 317 318 318 318 318 318 317 316 316 318 316 316 317 315 316 319 319 318 317 316 319 323 321 318 317 318 318 317 315 314 315 313 312 311 311 316 322 323 321 320 318 317
314 313 313 312 311 314 314 313 314 314 313 315 316 316 315 316 316 318 319 319 320 320 320 320 320 320 320 320 319 319 316 318 322 320 320 323 321 319 322 321 318 318 323 324 316 314 320 319 314 315 315 315 315 315 318 320 318 317 318 318 318 320 319 318 318 317 318 320 320 319 319 316 314 314 315 316 317 315 313 313 310 312 320 323 321 319 317 315
314 314 313 313 312 313 313 313 314 315 314 314 314 314 314 315 315 315 317 318 319 321 321 319 318 317 318 319 319 319 318 319 322 321 320 322 319 316 316 319 321 320 320 319 315 317 320 318 315 316 315 314 315 317 321 321 318 318 319 318 318 319 319 319 318 317 317 317 317 317 318 318 314 314 316 317 318 316 314 314 311 312 319 322 320 318 317 315
309 311 311 311 312 313 313 313 314 315 315 313 313 313 314 315 314 314 317 318 318 319 321 320 318 317 317 318 318 319 320 320 320 320 320 320 317 316 315 316 318 317 316 315 316 318 318 316 317 317 315 316 316 318 321 320 318 318 318 317 317 317 318 318 317 316 316 316 316 315 318 318 314 313 316 317 317 316 315 315 312 313 319 321 318 317 317 316
306 308 308 308 311 312 313 312 313 316 315 313 313 314 314 314 313 313 317 318 317 319 319 318 318 318 318 318 318 318 320 320 318 319 321 318 317 319 318 316 315 315 316 315 316 317 316 315 317 316 315 317 318 319 322 321 319 318 318 317 317 316 317 317 316 315 315 315 315 315 316 316 314 315 317 317 317 317 317 316 314 315 319 319 317 316 315 315
304 306 307 309 311 311 312 312 313 315 315 313 313 315 314 313 313 314 317 316 315 317 317 317 317 318 318 319 318 317 318 318 318 319 320 319 317 318 317 316 315 315 314 314 314 314 316 317 318 316 316 316 317 319 323 325 323 321 320 319 318 318 318 317 316 315 315 315 315 315 316 315 314 315 317 319 320 318 317 317 315 316 318 317 316 315 314 314
301 301 303 309 311 311 312 313 312 314 315 313 313 314 315 314 313 315 317 316 316 316 316 317 318 317 318 319 317 317 318 320 320 318 318 318 317 316 318 317 316 315 315 316 316 315 316 317 318 317 317 317 316 318 321 322 321 320 321 322 322 321 319 318 316 316 315 315 315 316 316 314 313 313 316 320 321 317 317 318 316 316 318 317 316 315 313 313
301 300 302 308 309 309 312 313 312 313 314 313 312 313 314 314 315 316 316 317 318 318 317 318 318 317 317 318 317 319 322 323 322 319 318 319 318 319 321 318 313 314 315 315 315 316 315 316 318 318 317 316 316 317 319 319 318 317 318 319 320 320 319 318 317 317 315 315 316 316 315 313 313 314 314 317 319 317 316 316 315 316 318 317 315 314 313 312
Wind_Speed
42 42 44 42 41 41 41 40 38 38 38 37 36 34 33 31 31 30 29 27 25 25 25 24 23 23 22 19 16 13 10 8 5 4 6 11 13 13 11 6 6 4 7 6 7 5 7 7 8 10 7 2 1 1 1 2 1 1 1 2 4 4 4 5 4 5 7 6 5 7 6 6 6 2 2 2 1 4 5 3 5 8 8 8 12 20 25 25
42 41 43 43 42 41 41 40 39 37 37 37 36 35 34 32 31 30 29 28 25 25 26 25 25 24 22 19 16 12 9 6 2 4 14 18 14 15 15 10 8 9 9 6 9 5 5 7 9 9 5 2 2 2 1 2 1 2 2 2 4 4 2 3 5 5 7 9 7 7 6 4 7 7 3 3 5 5 5 5 6 7 7 8 12 18 21 22
44 42 42 42 41 41 41 40 39 37 36 37 36 35 34 33 31 30 29 28 26 25 26 25 24 23 21 19 15 12 8 3 1 8 21 21 15 16 14 11 9 9 8 3 5 3 6 9 11 11 5 3 3 3 2 1 2 3 3 3 5 2 3 5 8 7 6 10 9 7 5 2 6 7 3 4 6 7 6 6 7 7 7 8 10 15 18 18
42 42 44 42 41 42 41 40 39 37 36 36 36 35 34 33 32 31 30 29 26 25 25 25 24 23 21 19 16 14 9 1 3 9 19 22 19 18 14 11 10 9 7 2 3 4 9 10 7 8 8 5 4 4 3 2 2 2 3 3 4 1 4 6 8 7 6 7 8 7 5 4 5 5 4 5 5 6 7 8 10 10 12 11 10 13 17 17
40 40 45 43 41 42 41 40 39 37 36 35 35 34 33 33 32 31 31 29 27 25 25 26 25 24 22 19 18 15 8 0 3 8 18 24 24 22 17 15 12 9 7 3 2 4 9 9 5 6 6 5 4 4 3 4 3 2 5 3 5 3 3 5 6 6 4 3 7 8 6 5 4 3 5 6 4 3 2 4 7 8 14 15 13 14 15 16
42 41 44 44 42 43 42 41 39 38 36 34 34 33 32 32 32 32 31 29 27 26 26 26 25 25 22 21 21 15 7 2 1 5 17 25 26 24 21 18 15 11 9 6 1 3 5 6 4 3 4 6 5 4 5 5 2 1 6 2 5 6 3 4 4 4 4 3 7 7 6 6 5 4 5 6 2 3 3 5 6 7 15 18 17 15 13 13
44 43 45 46 42 42 43 41 40 39 37 34 33 33 31 31 32 31 30 29 27 27 26 25 25 25 24 25 21 9 5 5 2 1 13 23 26 24 23 20 17 15 11 7 4 2 4 5 4 4 5 7 6 6 5 3 3 2 6 2 3 6 5 4 4 3 4 3 3 3 6 6 6 4 2 4 3 7 5 6 8 11 18 18 15 13 13 15
45 45 45 49 45 43 43 41 41 39 38 35 33 32 31 31 32 31 30 29 28 27 26 26 26 26 28 26 15 3 4 5 3 3 6 18 23 22 23 21 18 16 13 11 9 6 6 5 6 5 5 7 7 5 3 2 3 5 5 1 2 4 5 4 5 3 5 3 3 3 5 5 4 3 2 5 5 8 6 7 7 9 13 13 11 11 11 13
47 46 43 47 47 44 43 41 41 40 38 36 34 32 31 31 31 30 29 29 28 28 26 27 26 26 27 21 10 3 8 12 4 2 1 13 20 22 23 22 19 18 15 13 13 11 7 5 7 6 5 7 7 4 4 3 3 5 3 3 3 3 4 3 4 3 2 1 1 3 4 4 3 2 2 7 6 9 7 8 7 7 8 8 9 10 10 10
49 49 43 44 46 43 43 41 40 40 38 37 35 33 32 31 30 29 28 28 28 28 28 27 26 27 25 17 9 5 11 21 19 6 0 8 17 22 23 23 23 22 16 13 14 13 10 8 8 4 4 6 5 4 4 5 3 1 3 5 4 3 2 0 3 4 0 1 1 2 4 4 1 1 3 4 8 10 8 8 7 7 6 7 7 8 11 11
50 51 46 43 44 43 42 41 41 40 39 37 35 33 32 30 29 28 27 27 27 27 27 28 28 27 23 16 9 6 7 20 25 15 4 5 14 21 23 24 25 25 20 14 16 19 17 14 10 1 1 3 4 4 1 3 3 2 6 6 3 2 3 1 3 4 1 2 1 2 4 4 1 1 4 4 7 8 9 8 7 7 6 7 7 7 9 11
51 53 49 45 45 44 43 42 41 41 39 38 35 34 32 30 30 28 26 26 26 25 24 27 29 25 19 10 6 6 7 13 20 20 12 6 11 15 18 23 25 25 20 14 16 22 18 14 11 5 2 3 2 2 1 1 1 3 4 3 4 2 2 2 3 4 1 0 2 1 2 1 2 6 7 6 7 6 7 8 8 7 7 7 7 6 7 9
53 53 51 48 46 45 44 42 41 40 39 38 35 33 32 31 30 27 25 24 24 23 22 26 28 20 13 6 5 8 9 14 19 19 15 11 10 11 14 19 22 21 17 13 13 19 18 12 8 7 6 4 2 2 3 2 1 3 4 2 4 2 2 5 4 4 2 1 1 1 1 4 7 13 9 7 7 7 6 7 8 6 6 6 7 6 6 9
55 53 51 50 48 46 45 43 41 40 39 37 35 33 32 30 29 26 24 21 20 21 21 26 22 10 6 4 6 11 10 13 17 17 17 16 13 13 13 16 19 18 14 10 7 12 18 13 7 5 5 3 1 1 2 1 1 3 4 3 3 3 3 6 5 6 3 1 1 2 2 5 4 7 6 7 7 8 7 7 7 6 6 6 6 7 6 8
56 54 52 51 49 48 46 43 41 40 39 37 36 33 31 30 28 25 22 20 20 19 21 23 16 5 3 3 5 13 12 9 12 16 18 17 16 13 13 15 18 18 13 8 4 7 13 10 5 4 2 1 1 1 1 1 2 3 4 3 3 3 2 3 3 6 4 1 3 3 3 5 2 2 5 4 5 6 6 6 7 7 7 7 6 7 6 7
56 56 53 50 49 47 46 43 41 40 38 37 36 33 31 30 28 24 21 20 21 19 17 17 13 7 3 3 5 11 11 8 10 14 16 17 15 12 15 14 13 15 11 8 5 4 8 7 2 2 2 1 2 3 2 2 2 3 4 3 4 5 3 1 2 2 3 3 4 3 3 3 2 4 3 3 4 5 5 6 7 7 8 7 6 6 6 6
56 56 54 51 48 46 46 43 41 40 39 38 37 35 32 30 27 23 20 20 21 18 12 11 12 9 2 4 5 8 8 9 13 16 17 16 13 15 19 12 9 13 8 6 5 3 6 5 0 1 2 3 4 4 4 4 3 3 3 2 4 6 4 3 1 2 2 3 4 5 4 4 3 5 5 5 6 6 6 6 7 6 7 7 7 7 7 7
56 56 55 52 48 47 46 44 44 41 40 40 39 37 34 30 28 23 21 22 21 15 6 7 12 8 3 8 7 9 13 15 17 17 18 15 14 18 16 9 10 13 9 4 4 3 4 3 2 2 3 3 4 5 4 4 4 4 3 3 4 5 5 4 2 2 6 3 3 6 6 9 7 4 6 6 6 7 7 7 6 6 6 7 7 7 7 8
56 56 55 53 50 48 48 47 46 43 44 43 41 40 34 27 22 18 21 21 15 9 4 10 14 4 3 11 8 10 18 21 17 15 17 15 15 15 10 9 11 10 8 4 3 5 4 2 3 4 4 5 6 6 6 5 5 7 8 6 5 5 5 3 2 2 6 4 3 6 7 9 9 7 6 6 7 7 7 6 5 6 6 6 6 7 7 8
56 56 54 53 51 50 50 49 47 48 49 46 45 38 24 18 13 9 14 14 11 7 4 13 14 3 4 9 10 14 18 18 12 10 16 18 15 11 6 8 9 6 6 6 5 5 4 4 4 6 6 7 8 8 9 6 4 5 8 7 7 5 3 2 4 1 3 3 5 7 7 8 8 9 7 7 8 7 7 7 6 6 6 6 7 7 8 8
57 58 55 53 53 52 52 51 51 53 51 50 47 23 10 16 10 10 16 10 12 12 4 16 17 3 7 9 14 19 14 9 6 9 17 19 15 10 7 7 8 5 6 8 5 3 4 6 6 8 8 8 9 9 9 6 4 5 3 6 7 5 2 2 3 3 2 1 5 8 9 11 10 9 8 6 8 8 8 8 8 8 7 7 7 8 8 6
59 58 58 55 54 54 54 54 53 53 50 48 36 8 10 19 2 10 23 7 10 16 8 18 17 3 8 10 14 14 10 7 7 8 14 18 12 7 7 7 8 7 7 8 6 3 4 6 7 9 9 6 7 10 9 5 2 5 2 2 4 3 3 2 3 3 2 1 2 3 5 9 9 8 8 7 8 8 9 10 9 9 9 8 8 8 8 7
60 59 60 56 56 56 55 56 54 51 48 40 25 7 17 24 6 22 25 6 8 12 5 17 14 5 9 8 9 7 6 9 8 7 13 16 9 5 8 9 9 8 8 10 8 5 5 6 7 7 8 4 3 7 7 2 1 2 2 1 2 3 4 1 1 2 1 1 1 3 3 6 7 7 7 9 11 9 8 11 10 9 10 9 9 8 8 9
61 61 60 58 59 57 56 57 50 45 44 36 26 15 16 23 22 33 20 5 8 5 3 16 11 6 7 5 8 6 4 7 7 9 15 15 9 5 8 10 10 8 8 11 10 8 6 3 3 4 8 7 3 3 5 4 3 3 3 3 3 2 4 3 3 4 1 1 1 2 5 5 6 7 9 9 10 10 9 9 10 9 9 8 5 5 6 8
61 61 60 61 59 58 59 51 40 40 37 27 29 23 15 23 26 22 10 5 7 0 2 12 6 5 8 6 7 5 4 5 3 7 15 13 7 5 6 7 7 8 10 12 10 7 5 2 1 3 7 8 6 5 5 6 3 3 5 5 2 2 5 8 5 5 2 2 2 3 1 6 5 9 11 8 8 10 9 9 10 8 8 7 5 6 6 5
62 60 61 61 59 61 53 31 28 40 28 16 32 29 15 21 21 12 5 4 6 3 4 8 4 9 11 7 6 4 5 4 3 5 14 10 3 2 6 4 1 5 11 10 5 3 2 1 1 4 6 6 6 4 5 6 4 3 4 4 3 5 7 8 6 4 2 2 2 2 4 5 4 4 8 7 8 9 7 7 9 8 7 7 7 7 6 6
60 60 63 60 63 63 37 16 29 36 16 17 39 32 16 18 14 7 3 2 4 6 5 3 3 10 12 9 11 5 4 6 3 3 9 7 2 2 3 5 2 2 7 5 2 1 3 3 1 4 5 4 5 3 4 6 4 3 2 3 4 7 6 7 6 3 2 1 2 1 2 2 5 5 5 2 6 6 6 7 9 7 8 8 7 7 7 6
60 61 63 61 67 59 29 26 36 22 12 31 44 28 15 15 9 3 2 3 4 5 6 3 2 9 9 9 12 4 2 9 7 3 4 6 4 2 0 6 5 3 3 5 6 1 2 5 5 6 5 3 4 1 3 7 4 3 2 3 2 4 5 6 5 3 1 3 1 3 2 1 5 6 4 1 4 5 7 9 10 9 8 8 7 6 6 5
62 63 62 64 61 42 24 34 36 16 19 38 37 20 10 8 5 1 2 5 4 4 6 5 4 8 9 10 11 5 3 5 3 2 5 5 3 0 1 5 6 5 3 3 5 1 1 4 4 6 6 3 3 2 2 4 4 3 2 4 5 3 3 3 3 3 2 1 4 5 4 2 5 5 4 2 3 6 8 8 8 8 7 6 6 5 5 4
65 62 62 65 50 28 25 30 29 25 27 31 28 18 9 5 4 3 5 5 4 4 4 4 5 9 13 12 10 7 5 2 2 5 5 4 2 1 2 1 4 6 4 6 5 0 1 1 1 2 3 3 4 3 3 2 4 4 4 5 5 4 4 3 0 3 2 2 4 4 6 5 4 5 5 4 4 5 5 4 2 5 6 6 5 5 4 4
63 61 63 62 40 27 27 21 26 36 29 25 25 16 8 3 3 6 7 4 5 4 4 6 8 12 16 15 9 8 7 4 5 9 7 5 3 2 2 1 3 4 2 4 4 1 1 2 1 1 1 2 4 3 3 2 3 4 3 5 4 3 4 3 2 2 1 3 3 3 1 3 4 5 3 3 3 3 2 2 4 6 6 6 5 5 5 4
60 61 62 52 33 26 20 19 35 41 27 24 23 12 5 5 4 5 5 5 6 6 6 11 14 14 15 14 10 9 8 5 6 10 10 7 6 6 6 5 4 3 3 3 2 1 2 2 1 1 2 2 4 4 4 4 2 1 3 6 4 1 1 1 1 1 3 4 2 2 3 1 5 6 6 7 5 5 4 2 5 7 7 6 6 5 5 4
58 60 55 40 29 22 18 30 44 37 25 22 17 6 4 7 8 7 6 6 7 8 9 12 15 16 15 12 9 10 8 6 8 9 9 8 7 7 7 7 9 6 4 5 4 2 1 2 1 2 1 2 4 4 3 1 2 3 5 5 5 3 2 2 3 2 3 3 3 3 1 2 4 5 9 13 10 4 4 5 6 7 7 6 6 5 5 5
57 55 44 33 27 21 24 39 43 34 26 17 8 7 7 8 9 9 8 5 5 11 13 12 15 17 15 10 9 10 7 5 9 10 8 8 7 7 8 9 10 7 3 5 5 5 5 2 2 3 1 3 5 3 4 6 4 5 5 5 5 4 3 4 3 3 3 1 2 3 1 3 3 3 6 8 3 2 5 5 6 7 6 6 5 5 5 5
55 46 34 30 26 21 26 37 39 33 24 10 5 8 9 10 9 9 9 5 5 11 13 15 17 15 12 8 10 12 5 4 9 9 7 9 8 8 8 8 10 8 5 6 4 4 7 3 1 1 2 3 5 2 1 5 3 4 2 4 4 4 3 3 2 3 4 1 1 1 2 4 5 4 5 3 4 4 5 4 5 6 5 6 5 5 5 5
47 36 28 27 24 20 23 31 37 33 18 8 8 8 9 8 6 7 8 7 9 13 16 15 13 12 11 6 9 12 4 4 11 8 6 9 8 9 10 7 11 11 7 6 3 2 6 2 3 2 2 1 1 2 2 2 2 2 2 3 4 2 6 4 1 0 3 0 3 3 3 5 3 6 6 5 5 3 4 4 5 6 6 6 6 5 5 5
37 27 21 21 22 21 23 29 37 30 13 7 9 9 9 5 2 5 7 9 12 15 16 13 8 10 12 8 10 13 7 6 10 7 6 7 6 10 12 7 10 14 9 6 2 2 5 2 3 1 2 1 0 1 2 1 1 3 3 4 2 1 3 3 1 1 2 2 3 4 5 5 3 4 3 4 5 5 6 6 5 5 6 6 6 6 6 6
28 21 13 14 20 20 24 32 35 22 7 6 10 10 8 3 1 6 10 12 15 15 13 9 7 9 11 9 9 12 11 9 9 7 6 7 5 9 13 7 8 13 10 5 3 2 5 4 2 3 1 1 1 1 1 2 2 3 3 2 2 1 1 1 3 1 2 3 3 4 6 4 4 4 1 3 7 7 7 7 7 7 7 6 6 6 7 6
22 13 7 14 19 18 27 33 26 12 5 8 11 8 5 1 1 6 14 15 13 13 11 8 8 8 9 10 10 11 12 10 9 7 6 6 4 7 13 8 6 12 11 5 3 3 3 4 1 3 3 1 1 1 4 2 1 1 1 2 2 2 3 3 3 2 2 3 3 3 4 4 5 6 6 7 9 9 9 8 9 9 8 7 6 7 7 6
14 6 6 18 20 20 30 27 13 8 8 10 10 5 4 2 1 4 13 15 10 6 8 10 10 10 9 11 11 11 10 10 11 8 5 7 5 6 12 10 8 12 11 6 3 2 2 2 2 1 3 1 1 2 5 5 4 2 1 1 1 1 2 1 2 2 3 3 3 3 3 5 5 5 8 10 9 10 10 9 9 8 8 8 7 7 7 6
7 4 7 19 25 27 28 16 7 9 9 9 9 5 4 4 3 2 4 7 5 1 2 9 11 10 10 12 12 10 8 8 10 8 5 8 7 5 7 9 10 11 9 6 3 2 1 2 4 3 1 2 1 2 1 2 4 4 4 5 6 4 3 1 3 3 3 2 3 3 3 5 5 2 2 3 3 5 6 8 9 8 9 9 8 8 8 8
5 4 10 24 33 31 21 8 8 10 7 7 5 3 5 5 5 5 1 3 3 2 1 6 9 9 9 10 11 11 10 8 10 9 7 9 9 5 6 9 12 13 10 6 4 2 2 4 5 3 2 2 1 0 1 1 2 2 2 4 5 5 5 4 5 4 3 2 2 2 2 6 5 2 3 3 2 2 2 1 6 8 8 8 8 9 9 8
3 6 14 28 35 25 13 8 10 8 6 6 4 4 4 4 5 5 3 2 3 1 1 3 8 9 7 8 10 12 12 8 10 12 8 8 7 3 5 11 13 13 10 6 4 2 2 4 4 2 2 2 1 0 0 0 2 2 4 4 5 6 6 6 4 3 3 3 3 2 4 6 5 3 3 4 3 2 3 3 1 5 6 7 8 9 8 8
4 5 9 21 26 15 7 10 12 11 9 8 6 3 1 2 4 6 6 5 3 3 3 3 6 7 5 6 8 11 12 8 8 10 7 7 4 4 2 12 14 11 8 6 7 5 3 4 4 4 2 2 2 1 2 2 3 2 2 3 3 2 2 2 1 1 1 5 7 5 5 6 5 3 3 3 4 3 3 3 1 3 6 6 7 8 8 8
6 4 4 11 13 7 4 5 7 10 11 9 9 7 4 2 2 2 7 6 2 3 4 2 5 7 4 5 6 9 12 7 5 7 5 5 3 5 2 9 13 9 4 6 9 7 5 5 5 6 6 6 6 6 5 3 3 0 1 2 4 4 4 3 2 2 3 5 7 5 5 7 5 3 2 2 3 4 5 5 4 3 5 6 7 7 8 8
6 5 4 6 4 5 3 1 2 7 11 10 8 9 9 6 1 3 3 4 1 2 4 2 5 7 5 7 8 8 12 6 3 6 6 4 2 2 4 1 6 5 5 11 13 7 3 3 6 9 10 11 10 6 5 8 5 4 5 7 8 8 8 6 2 4 5 5 5 5 5 9 11 6 3 4 5 6 6 5 5 5 4 6 6 7 6 7
3 4 7 7 4 5 5 3 4 6 10 11 8 8 11 9 5 1 2 0 2 2 3 2 5 8 8 11 9 7 10 6 5 7 8 5 3 2 3 5 5 4 4 9 9 6 4 4 7 10 12 11 8 5 8 10 7 8 10 12 11 10 10 9 7 8 8 5 7 9 8 11 16 11 7 7 7 6 6 7 7 6 6 6 6 7 6 7
1 3 4 3 3 7 8 8 8 6 10 13 7 8 12 11 10 7 1 1 3 4 2 2 5 10 13 14 10 7 9 6 4 7 7 5 4 4 3 5 4 2 2 4 3 3 5 5 7 8 11 10 7 6 8 9 8 10 12 14 14 13 13 13 13 14 11 8 10 13 13 15 16 12 8 8 8 8 8 8 7 6 7 7 8 8 8 7
1 3 1 2 1 5 7 7 7 5 10 14 7 7 14 13 13 10 3 3 4 4 3 6 8 10 12 12 9 8 10 9 6 5 5 6 6 5 3 2 1 1 1 4 2 1 3 4 5 7 8 9 6 6 7 8 8 9 12 14 14 14 15 15 16 17 17 14 15 16 16 16 13 9 8 8 8 8 6 5 7 8 8 8 9 9 9 9
1 2 1 1 2 3 6 7 7 5 7 11 8 7 11 14 14 9 4 6 10 7 6 8 11 11 11 11 9 9 12 12 10 9 9 9 7 5 4 4 3 2 1 4 3 1 2 4 5 6 4 7 7 7 7 8 8 8 9 11 11 11 13 15 16 16 15 15 16 16 15 14 11 8 7 5 4 5 5 6 8 8 8 9 9 9 10 10
1 2 0 2 2 3 7 8 7 6 6 8 9 8 9 13 14 11 3 2 6 9 9 10 11 10 9 11 12 11 11 10 10 13 15 13 10 7 4 5 8 7 4 4 4 3 3 3 4 6 4 6 7 9 8 6 4 4 6 8 11 12 12 13 14 14 13 12 13 13 12 13 12 9 7 4 5 6 7 8 7 6 8 10 11 11 11 12
2 3 2 1 2 1 5 7 7 7 7 8 9 9 8 10 12 12 5 1 2 4 7 9 11 9 8 11 11 7 7 7 6 8 9 7 7 6 4 6 11 12 8 5 3 3 6 4 3 6 5 7 6 9 7 3 2 5 9 13 15 14 12 11 11 12 13 12 11 10 12 14 11 8 9 8 6 8 9 8 6 6 9 10 11 12 13 13
Wind_Direction
206 200 197 196 194 194 196 196 199 201 202 200 196 195 194 193 193 194 193 191 193 192 190 192 192 192 191 192 198 196 193 186 181 189 215 231 228 213 206 198 185 250 314 13 36 5 324 305 279 270 257 247 181 226 241 197 259 275 207 220 246 238 188 181 164 138 132 133 147 167 183 152 143 161 128 178 176 124 142 135 94 74 70 89 111 121 129 140
209 202 195 195 193 192 194 195 197 200 201 199 197 195 195 193 193 193 192 192 192 191 191 190 191 190 189 192 194 187 179 184 198 236 232 228 221 212 212 221 226 263 289 24 37 7 310 297 300 287 245 203 192 170 225 203 177 217 229 220 239 249 196 146 108 100 128 141 152 162 198 188 148 161 149 168 175 154 155 156 138 108 93 108 121 126 133 142
210 203 195 195 193 192 194 194 194 196 198 197 196 194 195 194 193 193 191 192 192 190 191 190 190 189 188 187 176 162 150 147 260 246 234 225 216 207 204 217 224 259 278 30 33 340 287 300 331 319 272 225 215 176 219 201 176 234 228 243 245 209 58 60 83 78 105 133 145 153 184 183 138 146 149 194 178 170 187 172 159 156 147 148 144 140 141 149
209 202 196 197 194 192 193 194 193 193 194 195 195 192 193 192 191 191 190 191 192 191 191 189 188 187 184 175 156 143 131 99 262 240 231 219 212 206 198 214 217 235 260 359 358 293 293 298 324 303 276 256 219 190 215 188 176 239 211 238 276 159 83 54 81 80 76 120 141 140 142 145 137 134 157 207 181 175 212 187 176 181 162 156 158 153 151 159
213 203 195 196 194 192 193 194 192 191 192 193 193 190 189 190 189 190 190 191 192 190 190 188 188 186 178 164 148 144 138 165 250 231 230 218 212 212 211 222 213 208 241 293 332 297 293 285 273 277 280 267 224 190 216 211 191 255 240 251 348 348 95 68 65 61 41 98 125 134 150 144 121 127 180 216 197 172 252 164 163 172 159 156 159 158 158 165
214 207 195 195 196 192 193 194 191 189 189 191 190 188 187 187 187 188 190 189 190 188 187 187 186 181 172 160 153 152 169 201 91 207 216 211 211 216 219 226 213 204 237 253 282 302 276 268 262 268 274 264 240 208 212 217 183 263 254 243 21 6 67 68 51 29 3 104 129 147 152 128 134 172 196 227 195 116 44 66 72 102 141 149 151 156 161 169
212 210 196 194 197 192 192 193 191 188 187 189 189 186 186 186 185 186 187 186 187 186 183 184 181 175 167 157 153 149 217 228 32 192 198 198 204 211 217 222 214 208 223 217 179 236 250 244 245 247 254 262 250 225 210 189 152 228 263 230 59 43 56 43 61 16 354 84 110 126 131 133 172 179 163 233 164 112 85 71 69 94 127 139 146 159 166 171
210 211 198 192 195 192 191 191 189 188 186 187 189 187 186 185 185 184 184 183 184 183 181 181 178 174 167 156 144 108 252 230 41 30 188 187 191 197 203 207 203 201 207 202 182 197 236 236 236 241 240 253 251 228 192 161 179 222 266 342 79 69 71 61 75 38 9 50 41 82 127 122 153 128 88 232 175 129 114 91 86 100 127 141 151 166 168 172
208 211 200 189 192 190 190 191 188 187 185 186 187 188 186 183 183 182 181 181 182 182 181 182 177 172 170 157 137 171 214 214 210 15 178 181 184 188 191 193 193 192 203 207 190 199 229 226 227 236 249 270 268 233 169 180 224 216 225 61 79 77 94 99 90 74 13 12 50 129 137 77 83 122 216 228 168 134 128 113 112 117 138 155 159 169 170 173
205 207 202 189 188 188 188 189 188 186 184 184 185 187 185 180 181 180 181 180 180 181 180 181 174 167 165 148 143 206 215 213 217 235 228 168 178 182 184 192 194 189 195 200 193 205 219 218 223 226 260 284 283 270 177 188 272 213 139 84 80 71 87 39 88 111 294 83 124 194 135 84 38 170 233 212 148 137 135 135 143 142 159 173 169 174 174 176
201 201 201 191 188 188 186 187 187 186 184 182 183 185 183 178 178 179 181 179 177 179 180 180 172 167 165 153 166 202 200 208 214 216 211 155 170 177 181 189 191 187 187 189 200 211 216 229 241 235 294 283 285 291 224 196 318 75 120 93 96 104 95 54 101 133 234 106 181 274 103 96 36 229 224 165 143 152 148 152 162 165 179 180 177 177 175 181
200 196 196 191 189 187 184 185 186 185 183 180 180 182 180 177 176 178 177 175 174 174 177 180 176 168 162 164 198 187 171 198 206 207 209 184 172 177 185 189 188 186 184 185 206 214 218 235 245 227 221 281 283 263 280 247 331 120 154 130 144 161 137 182 131 132 190 136 213 313 77 156 193 229 220 155 150 162 159 166 166 178 191 182 180 177 177 183
198 193 192 189 188 187 183 183 184 184 182 178 177 176 175 174 173 173 169 166 168 168 170 174 172 164 158 173 209 184 179 187 192 196 193 184 177 174 184 190 186 182 185 194 213 216 218 232 242 236 235 264 278 253 298 293 191 162 212 216 154 178 206 182 133 120 139 345 277 64 229 219 211 224 206 149 155 153 169 184 166 179 192 182 179 172 179 186
197 192 187 185 187 185 182 181 183 183 179 175 172 170 170 170 167 167 166 166 167 166 166 165 164 168 174 173 174 180 182 176 179 178 173 173 164 164 175 179 180 181 188 204 213 209 214 227 255 270 245 237 292 297 320 306 227 179 208 245 182 179 190 169 147 151 155 316 264 127 225 248 238 218 166 139 158 151 172 186 170 182 185 182 180 173 182 190
194 189 183 183 184 183 180 179 180 179 175 171 166 163 164 161 159 160 161 165 163 159 159 160 170 211 203 175 163 176 177 165 173 177 175 168 154 157 170 171 179 185 191 203 203 197 205 217 247 269 253 156 127 256 225 169 237 206 193 229 211 192 167 160 164 165 155 238 220 170 225 253 265 118 111 130 162 157 182 194 187 187 178 180 179 179 189 192
190 185 181 180 182 181 177 175 176 174 170 166 161 158 156 151 151 149 148 155 155 151 149 158 190 243 234 183 153 165 171 160 177 184 175 166 162 158 155 158 171 181 195 208 211 200 188 196 232 259 262 177 183 232 226 178 214 229 206 196 200 200 174 172 272 227 144 132 197 219 239 240 200 148 131 147 165 171 201 216 211 193 177 179 177 184 196 193
186 182 179 178 180 178 172 172 171 167 164 159 154 149 145 142 142 136 135 144 146 144 138 154 203 252 264 145 148 167 168 153 168 177 168 165 169 154 144 144 151 159 171 188 198 194 173 180 179 255 236 204 190 213 221 198 203 227 214 217 212 196 174 166 279 293 176 163 208 219 239 253 219 166 160 179 180 181 206 225 226 206 183 183 178 180 192 196
180 177 175 175 177 174 169 168 165 161 157 150 145 141 136 131 132 130 131 133 131 135 140 171 197 242 226 178 181 169 157 153 161 167 166 162 155 151 151 151 143 143 141 142 174 175 172 177 166 208 216 208 201 201 213 199 184 182 186 234 228 198 200 187 174 188 175 197 232 193 223 251 242 194 170 188 186 183 208 220 222 214 198 193 186 185 191 197
175 172 171 171 173 172 168 164 161 157 150 144 138 132 124 116 121 130 139 141 138 147 186 183 187 232 193 181 176 144 149 155 156 159 164 158 149 156 165 155 145 145 146 146 181 181 174 153 169 214 207 202 212 211 221 218 197 185 179 206 215 193 215 186 116 198 167 161 227 202 218 243 245 240 200 187 187 189 206 215 224 227 214 205 194 193 195 201
171 168 167 168 170 169 165 160 158 153 148 142 134 127 121 122 127 141 156 171 188 194 185 175 191 259 73 148 135 120 139 150 147 154 164 159 150 159 172 156 151 160 161 153 167 176 170 170 194 213 200 196 209 223 235 243 270 220 176 190 215 191 198 122 94 202 172 150 220 225 240 248 246 250 228 189 184 194 200 202 214 222 219 216 206 205 204 207
168 166 165 165 167 166 162 158 154 154 151 145 139 132 145 155 150 168 169 192 224 246 248 169 189 225 77 124 134 126 132 144 137 151 164 159 152 160 172 165 161 176 177 151 135 139 172 200 207 204 209 203 199 221 242 248 311 306 182 175 216 205 168 51 86 176 180 121 222 218 234 251 247 248 249 208 188 197 198 199 210 213 213 213 208 212 213 202
166 165 164 163 165 163 159 156 154 156 152 149 149 140 168 171 221 166 160 155 221 249 264 171 185 174 102 134 149 141 133 140 141 159 170 162 163 180 170 170 172 172 177 154 128 133 190 221 211 200 218 219 197 211 232 246 305 314 311 164 216 202 125 61 62 140 155 135 254 229 226 252 254 248 249 238 226 215 198 200 209 211 212 213 207 209 210 195
165 163 161 162 163 161 158 156 155 155 153 157 163 148 170 188 190 145 150 98 173 218 234 170 180 129 121 148 167 164 145 147 151 175 181 167 169 195 169 174 180 169 177 166 154 169 188 219 221 207 205 194 188 197 196 222 272 274 302 303 228 183 134 132 188 135 167 185 48 357 311 270 269 269 252 236 237 233 211 207 207 206 212 213 205 200 199 194
162 160 159 159 160 159 157 155 154 157 161 163 167 159 165 180 162 147 146 64 143 189 188 171 176 131 135 149 166 179 163 150 148 167 181 172 159 171 174 179 176 169 181 174 168 180 183 206 247 218 189 177 158 177 177 183 230 244 234 245 275 208 128 95 147 141 26 314 106 33 328 286 237 237 249 235 226 229 222 213 209 209 212 206 195 199 198 193
159 158 157 157 158 158 155 154 157 164 166 164 171 174 162 166 171 162 141 89 142 268 214 176 178 152 151 130 152 166 129 134 117 157 176 177 158 154 179 188 178 175 179 175 173 183 195 231 266 178 180 183 175 185 190 176 203 253 220 212 296 17 106 110 138 141 83 281 223 123 344 285 235 216 235 227 211 222 211 199 207 211 210 203 206 217 212 211
157 156 156 156 157 155 153 157 166 165 163 172 179 180 177 179 192 195 144 108 160 166 172 174 170 171 163 140 151 140 134 154 14 139 166 179 189 153 181 185 149 181 176 173 181 176 166 1 53 156 165 174 178 206 202 171 187 234 239 225 150 88 103 130 152 150 136 225 259 124 171 266 297 267 252 212 192 218 207 204 218 214 212 212 216 223 216 218
156 156 156 157 157 157 156 158 164 164 165 182 179 182 208 210 215 224 147 113 186 163 154 177 188 176 166 154 164 157 157 158 72 127 166 172 189 23 181 179 120 183 169 149 189 193 112 104 96 141 140 154 175 215 200 167 175 215 293 309 155 127 130 150 151 168 183 126 7 351 169 268 299 286 285 164 164 214 215 223 237 227 216 210 208 211 200 193
157 157 158 160 161 162 161 153 158 166 172 175 178 187 218 219 220 247 151 157 175 145 144 159 158 164 154 153 170 169 123 143 134 162 152 141 164 35 123 186 156 129 131 146 181 243 92 151 168 149 139 165 178 204 197 168 171 232 279 9 100 140 150 153 151 182 104 63 320 262 176 280 271 251 277 135 172 230 226 223 228 221 208 192 184 180 165 159
159 159 161 161 161 163 159 157 161 157 156 170 180 190 200 198 201 263 201 178 150 119 140 139 141 157 148 155 175 174 111 134 140 142 127 131 173 357 189 194 153 113 49 100 153 314 12 171 172 148 151 169 153 38 339 172 172 212 184 66 59 58 78 118 160 165 96 75 240 232 185 212 279 255 238 209 214 234 234 231 218 198 178 157 155 151 137 140
160 161 162 160 160 159 149 154 162 153 154 170 181 180 165 161 184 178 192 185 141 134 147 137 159 159 152 159 175 173 144 94 72 124 139 151 158 292 276 208 131 117 65 55 87 92 296 157 134 119 157 159 126 75 10 126 134 145 141 82 61 41 45 43 77 116 107 247 237 224 191 189 273 262 200 188 228 225 226 239 174 133 132 132 132 142 154 163
161 161 162 161 161 155 147 150 160 158 161 171 170 163 147 153 221 180 175 161 127 139 151 145 153 156 162 165 164 170 152 97 128 147 155 162 149 204 214 156 95 90 89 65 65 67 60 73 100 37 280 179 121 84 16 33 97 108 129 112 80 19 36 30 358 79 156 244 254 301 308 167 229 255 218 213 230 185 162 206 175 153 144 144 144 151 158 161
160 161 162 162 159 151 149 153 157 160 166 163 155 152 154 163 211 198 159 146 153 173 178 162 158 161 170 165 154 165 150 115 157 163 157 163 168 182 187 176 150 128 166 157 100 85 73 68 117 53 310 228 143 102 39 3 359 87 145 129 119 79 72 111 254 175 210 242 249 308 358 227 234 251 260 261 245 195 170 153 164 164 151 145 153 152 150 162
159 161 160 161 157 144 141 151 156 161 162 153 149 162 181 166 191 196 163 165 171 160 162 162 158 158 163 161 157 162 145 132 168 167 158 165 170 187 203 194 177 174 175 152 134 132 96 345 190 122 346 246 176 144 130 195 235 189 168 143 146 155 131 194 206 190 225 257 283 280 296 267 270 265 247 247 250 225 157 123 122 136 139 142 148 145 150 169
157 158 158 158 153 137 140 155 162 162 155 150 158 177 182 180 191 186 168 179 158 144 150 153 150 153 163 165 158 158 145 135 165 162 159 170 175 193 206 201 191 185 132 137 161 169 173 239 208 160 172 187 183 182 158 157 173 198 184 145 163 176 161 185 186 185 207 237 322 302 243 196 218 251 235 226 231 83 99 108 105 111 124 131 135 147 156 161
155 154 151 151 150 142 148 161 167 163 154 152 167 176 188 188 186 180 169 160 144 145 146 147 146 152 167 163 149 162 162 140 167 167 167 182 187 189 194 197 196 187 147 156 184 172 177 217 280 245 270 172 176 245 105 123 149 221 178 128 190 207 145 142 177 175 156 100 310 243 246 219 207 254 249 172 119 105 113 126 129 130 142 141 151 173 165 156
150 149 148 151 155 157 157 164 167 164 160 161 165 186 205 195 181 175 162 145 150 148 139 145 152 154 166 162 155 170 163 133 168 173 179 191 197 194 192 192 191 191 174 159 160 151 169 229 329 323 340 63 143 320 11 114 171 198 145 167 211 177 115 121 244 112 107 179 237 185 252 276 276 282 256 165 153 177 167 176 180 168 159 156 171 179 159 149
147 147 149 154 162 166 161 163 164 164 168 181 180 192 199 207 203 159 144 133 141 142 139 149 165 164 169 168 167 172 151 133 169 176 174 185 202 200 196 196 189 193 192 156 145 189 150 109 336 350 34 9 323 15 26 22 110 114 154 201 205 63 80 118 194 8 90 231 242 174 214 252 234 273 293 143 183 219 203 203 202 179 169 172 180 170 153 145
144 143 143 155 165 167 160 159 161 162 178 199 199 201 187 206 253 146 140 135 140 146 149 154 165 175 177 166 165 170 155 152 174 178 170 179 206 192 185 196 191 193 198 144 116 198 134 104 328 344 16 273 335 97 116 353 29 118 176 200 115 141 255 151 181 201 165 214 266 226 222 231 202 217 258 187 212 220 210 206 201 192 187 183 178 163 147 135
137 138 146 164 166 165 158 156 157 163 192 197 203 207 167 133 283 152 144 141 143 152 158 157 158 172 178 165 158 163 166 167 167 173 183 183 210 192 179 183 180 190 197 155 131 199 132 115 231 323 322 238 38 159 187 200 0 52 17 21 66 161 184 172 198 208 164 198 261 256 234 243 231 211 203 211 212 202 200 204 204 200 192 185 177 164 151 141
140 140 149 163 163 157 153 151 153 176 199 198 197 188 133 119 264 162 145 145 147 157 165 163 162 165 169 165 160 163 173 170 163 180 201 173 181 201 185 177 169 180 186 159 141 167 92 107 167 310 317 210 164 226 194 177 176 165 107 130 160 176 120 101 259 219 159 185 234 250 257 259 249 217 209 217 211 196 195 198 205 202 190 186 173 159 156 149
155 142 141 159 158 151 148 147 171 188 200 204 194 171 138 135 147 145 127 136 136 43 162 162 166 167 162 163 166 165 166 168 170 185 197 177 182 209 196 177 161 163 166 163 169 163 121 125 135 145 231 194 207 305 49 147 168 173 185 185 185 179 136 126 256 226 178 188 201 206 254 268 264 260 227 212 177 180 190 190 200 199 185 181 170 161 163 160
162 136 140 156 157 154 151 159 188 189 201 200 181 132 137 142 143 150 87 78 102 32 50 160 167 167 163 166 166 162 163 171 179 184 197 196 190 193 194 172 155 156 159 161 177 174 115 105 108 130 175 173 212 277 82 129 135 140 234 205 178 179 168 177 211 213 199 210 176 155 266 271 264 302 14 22 59 60 25 201 199 195 183 174 165 163 164 160
137 112 125 149 159 162 161 171 182 195 209 177 125 83 142 150 136 147 155 123 123 117 101 144 162 167 171 170 161 162 168 173 184 189 195 189 184 214 194 165 150 155 158 150 157 158 104 107 106 90 50 5 323 253 2 95 134 174 239 211 184 196 194 188 194 175 176 197 164 165 252 263 274 326 9 346 343 9 352 337 224 174 168 164 161 163 163 154
115 92 111 151 167 178 182 179 183 191 192 167 136 121 164 137 133 151 163 159 151 153 134 130 156 159 161 162 155 164 171 174 189 195 187 168 182 315 214 160 151 157 170 166 164 170 169 149 127 111 94 5 346 295 270 242 200 203 231 205 192 193 144 131 168 98 224 211 182 181 237 251 273 331 0 322 316 306 272 266 244 159 156 163 165 163 161 151
122 81 80 158 180 208 209 192 192 185 180 168 155 157 145 85 61 154 153 144 111 129 129 115 140 130 118 135 132 159 178 178 177 184 169 144 164 332 327 165 161 166 170 138 141 154 174 175 158 157 177 193 204 218 212 183 178 187 4 186 191 182 150 150 193 208 240 226 188 187 241 254 271 324 347 282 272 269 245 214 226 224 170 167 172 168 164 161
133 113 121 153 202 254 249 293 255 191 179 172 165 164 156 137 30 340 128 138 12 93 109 98 125 117 123 148 138 164 187 176 103 158 161 126 117 346 339 148 147 139 117 128 137 136 142 195 191 188 206 209 206 207 141 118 138 184 197 201 201 199 191 184 182 195 217 234 220 218 235 256 266 261 242 251 237 240 238 200 208 230 188 168 171 170 169 165
119 130 154 158 178 218 230 251 238 205 181 177 173 167 162 147 133 71 29 51 220 134 86 71 144 147 159 164 156 169 181 154 101 153 159 125 96 74 14 22 57 64 90 133 146 122 116 206 206 198 222 226 204 177 136 135 165 189 195 206 209 204 196 195 210 213 210 221 240 237 225 242 257 247 215 229 233 235 237 209 203 206 186 169 163 162 165 162
85 119 161 159 169 195 203 203 204 199 177 175 172 160 162 154 153 163 72 18 189 178 112 107 183 179 171 167 162 159 164 153 144 164 152 127 122 109 46 27 44 22 38 116 142 106 125 205 210 197 227 234 203 181 165 167 192 197 200 209 209 206 198 198 214 221 215 214 233 238 227 231 250 250 225 219 214 217 225 210 190 179 171 166 164 165 167 168
51 89 116 347 347 183 173 159 174 193 175 172 173 167 169 170 169 166 124 108 173 211 183 169 188 188 174 169 162 155 167 172 173 173 140 121 135 127 103 68 73 311 60 111 143 97 130 200 201 184 224 241 217 198 184 185 205 211 212 215 211 207 203 202 214 222 221 222 230 238 238 240 247 246 237 226 208 206 205 168 155 171 178 172 168 172 176 179
53 76 125 62 51 144 142 138 160 186 175 174 182 178 174 178 175 162 137 159 173 188 197 184 182 179 173 173 172 177 187 182 172 169 148 135 152 162 160 167 150 141 139 135 155 224 177 194 174 155 212 247 224 215 204 191 201 214 221 225 218 208 204 207 216 222 224 229 236 244 253 258 253 244 248 243 185 157 146 153 174 184 175 168 173 183 187 188
42 340 287 133 90 128 156 157 167 178 175 182 189 179 175 183 175 157 135 180 175 179 189 181 170 167 170 180 189 194 191 180 170 171 162 154 167 175 167 160 146 144 168 164 151 162 179 191 152 138 190 238 215 209 213 195 197 237 245 232 219 209 206 207 212 217 216 220 236 247 252 254 250 245 251 235 157 155 177 187 193 186 171 173 183 190 195 195
32 332 328 116 82 103 172 160 168 187 187 188 187 175 174 180 167 153 148 0 28 161 177 167 157 159 171 188 200 192 150 128 131 153 151 135 132 126 118 143 147 149 161 160 148 161 163 165 149 147 192 245 217 189 187 126 83 255 239 220 214 214 214 212 214 219 214 208 218 230 236 243 244 239 248 239 187 188 206 196 182 185 187 190 193 195 199 200